{"data":{"norad_id":69752,"intl_designator":"2026-150P","name":"STARLINK-38029","alt_names":[],"object_type":"PAYLOAD","status":"ACTIVE","operator":null,"country":"US","launch_date":"2026-07-02","launch_site_code":"AFWTR","launch_vehicle":null,"mission":null,"orbit_class":"UNKNOWN","rcs_meters":null,"size_class":null,"mass_kg":null,"dimensions":null,"purposes":["comms"],"wikipedia_slug":null,"has_3d_model":false,"image_url":null,"decayed_at":null,"tle_current":{"epoch":"2026-09-20T00:06:03.926304Z","epoch_age_seconds":60589,"freshness":"FRESH","line1":"1 69752U 26150P   26263.00421211  .00011308  00000+0  35207-3 0  9995","line2":"2 69752  97.2865 101.9954 0001435  85.8702 274.2705 15.33445497 13668","mean_motion":15.33445497,"eccentricity":0.0001435,"inclination_deg":97.2865,"raan_deg":101.9954,"arg_perigee_deg":85.8702,"mean_anomaly_deg":274.2705,"bstar":0.00035207,"rev_number":1366,"period_min":93.906174221202,"perigee_km":464.55962786336,"apogee_km":466.52376364904,"semimajor_km":6843.6786957562,"source":"CELESTRAK","updated_at":"2026-09-20T09:00:44.288580Z"}}}